Wind_Speed
12 13 15 17 19 20 20 21 21 21 22 22 22 21 22 22 21 21 20 19 19 18 18 17 17 17 16 17 16 16 15 15 15 14 14 13 13 12 11 10 10 10 10 11 11 11 12 12 13 13 13 13 13 12 11 11 11 10 11 11 12 13 13 14 15 14 13 14 14 14 14 15 16 17 17 18 18 18 18 19 19 19 19 19 19
12 13 14 16 18 19 20 20 20 20 22 23 23 22 22 23 22 22 21 20 20 19 19 19 19 18 17 16 15 15 15 15 15 15 14 14 13 12 11 11 11 10 11 11 11 11 11 12 13 14 14 13 13 13 12 11 11 10 10 10 10 11 11 12 13 13 12 12 13 14 14 15 16 16 16 17 17 17 17 17 17 17 17 17 17
14 14 14 16 18 19 20 20 20 21 22 24 25 24 23 24 23 22 21 21 21 20 20 20 18 17 15 14 13 13 13 13 14 14 14 14 13 13 12 12 11 11 11 11 11 11 11 12 13 14 14 13 14 13 12 12 12 11 11 10 10 10 10 10 11 12 11 10 12 13 13 14 14 15 15 15 15 15 16 16 15 15 15 15 14
16 16 16 16 18 19 20 21 22 22 22 23 24 24 24 24 24 24 23 23 22 21 20 19 17 15 14 13 12 11 11 12 13 14 14 14 14 13 13 12 12 12 12 12 12 11 11 12 12 13 14 13 13 13 12 12 12 11 11 11 10 10 10 9 10 10 10 9 10 10 11 12 13 13 13 13 13 13 14 14 13 13 13 12 12
18 18 18 18 19 20 21 22 23 22 22 22 23 24 25 25 25 26 26 24 23 22 20 17 15 14 14 13 13 12 12 12 14 14 15 15 14 14 13 13 13 13 13 12 12 11 11 12 12 13 13 13 13 12 12 11 11 11 11 11 11 10 10 9 9 9 9 9 8 9 9 10 11 11 12 12 11 11 11 11 11 11 11 10 10
18 18 18 19 20 21 22 22 23 23 23 23 24 26 27 27 28 28 27 26 24 22 19 17 16 15 15 15 15 15 15 16 16 16 15 15 14 14 13 13 13 13 13 13 13 12 11 12 12 12 12 12 12 11 11 11 10 10 11 11 10 10 10 9 9 9 9 8 8 8 8 9 9 10 10 10 10 10 10 9 9 9 9 8 8
19 18 17 17 18 19 21 23 24 24 25 25 25 26 27 28 29 29 28 27 25 22 19 17 17 17 17 18 18 19 19 19 18 16 14 14 14 13 13 12 12 12 13 13 13 12 12 12 12 12 12 12 11 11 10 10 10 10 10 10 10 10 10 9 9 9 9 9 8 8 8 8 8 9 9 9 9 8 8 7 7 7 6 6 6
20 18 18 18 18 19 21 23 25 26 26 26 26 26 27 28 29 29 29 28 25 22 20 19 19 20 20 20 20 20 19 17 16 14 13 13 13 13 12 12 12 12 12 13 13 12 12 12 12 12 12 12 11 11 10 10 9 9 9 9 10 10 10 10 10 9 9 9 8 8 7 7 7 7 7 7 7 6 6 5 5 4 3 3 4
21 20 20 20 21 21 21 23 25 26 26 27 27 27 27 28 29 29 29 27 25 23 22 21 22 22 22 22 21 19 17 15 14 13 13 13 13 13 12 12 12 12 12 13 12 12 12 12 12 12 11 11 11 11 11 10 9 9 9 9 9 9 10 9 9 9 9 9 9 8 7 7 7 7 6 6 5 5 4 4 3 2 1 1 2
23 22 22 22 22 23 23 24 24 25 26 27 28 28 28 28 29 29 28 27 25 24 24 24 24 23 23 22 20 18 15 14 14 14 14 14 13 13 13 13 13 13 13 13 12 12 12 12 11 11 11 10 10 10 10 10 9 9 8 8 8 8 9 8 8 8 8 8 8 8 8 7 7 7 6 6 5 5 4 3 2 1 1 0 0
25 24 23 23 23 23 22 22 23 25 26 26 27 28 28 28 28 29 29 28 26 26 25 25 25 24 23 22 20 17 16 15 15 16 16 15 15 15 14 14 14 14 14 13 13 12 12 11 11 11 11 10 10 9 9 9 9 8 8 7 7 8 7 7 7 7 7 7 7 7 7 7 7 7 7 6 6 5 4 3 3 2 2 1 1
27 26 25 24 23 21 20 20 21 22 23 24 25 26 27 28 28 28 28 27 27 27 27 26 25 24 23 21 19 17 17 16 17 17 17 17 17 16 16 15 16 16 15 14 14 13 12 11 11 11 11 10 9 9 8 8 7 7 7 6 7 7 7 7 6 6 5 5 5 6 6 7 7 7 7 6 6 6 5 4 4 3 3 2 1
30 28 27 25 22 21 20 20 19 20 21 24 25 26 26 27 28 28 28 28 28 28 28 27 26 24 22 21 19 18 18 18 18 18 18 18 17 17 16 17 17 16 16 15 14 14 14 13 13 13 12 11 10 9 8 7 7 6 5 5 5 5 6 6 6 5 5 5 5 5 6 6 7 7 7 7 6 6 5 5 4 3 3 2 2
32 29 27 25 22 21 21 20 20 20 21 23 25 26 27 27 28 29 29 29 29 29 29 28 26 25 23 22 20 20 21 20 19 19 19 18 18 18 17 17 17 16 16 16 16 15 15 14 13 13 13 13 12 11 11 9 8 7 6 4 3 4 4 5 5 5 5 5 5 5 6 7 7 7 7 7 6 5 5 4 3 3 3 2 3
33 30 27 24 21 21 21 21 20 20 20 22 24 26 28 28 28 29 30 30 30 30 29 29 27 26 24 23 22 23 23 22 21 20 20 19 19 19 18 17 16 16 17 18 17 16 14 13 12 12 11 11 11 11 11 10 9 9 8 6 5 3 3 3 4 5 5 5 5 6 6 7 7 7 7 6 5 5 4 4 3 3 3 3 3
33 30 28 25 22 21 21 20 19 19 19 20 22 25 28 29 29 30 30 31 32 31 31 30 29 27 26 25 25 25 25 23 22 22 21 21 21 20 19 17 17 18 19 19 18 16 14 12 11 10 9 8 8 8 7 7 7 6 6 6 5 5 4 3 2 3 4 5 6 6 7 7 7 7 6 6 5 5 5 4 4 4 3 4 4
34 31 29 26 24 22 21 21 20 19 18 19 20 24 27 30 30 31 31 32 33 33 33 32 31 29 28 27 27 27 26 25 24 24 23 23 22 21 19 17 18 19 19 19 18 16 14 12 11 9 8 7 6 5 5 4 4 3 3 3 3 3 3 3 3 2 2 4 6 7 8 8 7 7 7 6 6 5 5 5 4 4 4 3 3
35 33 31 30 27 24 22 22 22 21 19 19 20 23 27 30 32 32 31 31 32 34 35 34 33 31 30 29 28 28 27 27 26 25 24 23 22 21 19 18 20 20 20 19 18 16 14 13 11 10 8 7 6 5 4 4 3 3 2 1 1 0 1 2 3 4 3 1 3 6 8 9 8 8 7 7 6 6 5 5 4 4 4 4 3
37 36 35 32 29 26 24 23 23 23 22 21 21 23 25 29 32 33 33 33 34 35 36 36 35 33 31 31 30 30 29 28 27 26 24 23 23 21 20 20 21 21 21 20 18 17 15 13 12 10 8 7 6 6 5 5 4 4 4 3 3 3 3 3 3 3 4 3 1 2 6 8 9 8 8 7 7 6 6 6 6 5 5 4 4
39 38 36 33 30 28 26 25 25 25 24 24 24 24 24 28 31 33 34 34 35 35 36 36 36 35 33 32 32 32 31 30 29 27 26 26 25 24 22 22 23 22 21 20 19 17 16 14 12 10 9 8 7 7 6 6 6 5 5 5 5 6 6 6 5 5 4 4 4 2 2 5 8 9 8 8 7 7 7 7 7 6 6 5 5
40 39 37 34 32 30 28 28 28 28 27 27 27 26 25 26 29 32 33 34 34 34 35 36 36 36 35 34 34 33 32 31 30 29 28 28 27 26 25 24 23 23 22 21 19 18 17 15 13 12 11 10 9 9 8 8 7 7 7 7 7 8 8 8 8 7 6 5 4 4 2 2 5 8 8 8 8 8 8 7 7 7 6 6 6
41 40 38 36 34 32 31 31 32 31 30 29 29 29 27 26 27 30 33 33 33 34 34 35 35 36 35 35 35 35 34 32 31 30 30 29 28 28 27 25 25 24 23 22 21 19 18 16 14 13 13 12 11 10 10 9 9 8 8 8 9 10 10 10 10 9 7 6 6 5 4 3 3 6 8 9 9 8 8 8 8 8 7 6 5
40 40 39 37 35 34 34 34 34 32 31 31 32 31 29 26 26 29 31 33 33 33 34 35 35 36 36 36 36 35 35 34 32 32 31 31 30 30 28 27 26 26 25 23 22 21 19 17 16 15 14 14 13 12 12 11 10 9 9 9 10 11 11 11 12 11 9 8 9 7 7 6 4 5 7 9 9 9 9 9 8 8 7 6 5
41 41 40 39 37 36 36 35 35 35 33 33 33 32 31 29 27 27 29 32 34 34 35 35 35 35 37 37 36 35 35 34 33 33 33 32 32 31 30 29 28 27 26 25 24 22 21 19 17 17 17 16 15 14 13 12 11 10 10 10 11 12 13 12 13 13 11 10 11 10 9 8 7 6 7 8 9 9 9 9 8 7 6 5 5
43 42 41 40 38 37 36 34 34 35 35 35 35 34 33 30 27 27 28 31 34 35 35 35 35 36 37 37 36 36 35 35 34 34 34 34 33 32 31 30 29 28 27 26 25 23 22 20 19 19 18 17 16 15 13 13 12 11 10 10 11 13 14 14 14 14 13 12 13 12 10 9 9 8 7 8 8 9 9 9 8 7 6 6 4
45 43 42 40 38 37 37 34 33 35 37 37 37 36 34 31 29 28 28 30 32 34 35 35 35 36 36 36 36 35 35 35 35 35 35 35 34 33 33 32 30 29 29 27 26 24 23 22 22 21 20 18 17 15 14 13 12 11 11 12 12 14 15 15 15 15 14 14 14 13 11 11 11 10 8 7 8 9 9 9 8 8 7 6 5
47 46 44 42 40 39 38 36 35 37 39 39 38 37 35 33 30 29 29 30 31 33 34 35 35 36 36 36 35 35 35 35 36 36 35 35 35 35 34 33 31 30 30 28 27 26 25 24 23 23 21 19 18 16 15 14 12 12 13 13 14 15 15 16 16 16 15 15 15 14 12 12 13 13 9 7 8 9 10 10 9 9 8 7 5
50 49 47 45 43 41 40 38 36 37 40 40 39 37 36 33 31 30 30 30 30 32 33 34 35 35 34 35 36 36 36 36 36 36 36 36 36 36 35 34 33 31 30 29 28 27 26 25 25 23 22 20 18 17 16 15 14 14 15 15 15 15 15 16 16 16 16 16 16 15 14 13 14 14 12 8 8 10 11 11 10 9 8 7 6
53 51 49 47 45 43 41 39 37 37 38 39 39 38 36 34 31 30 30 29 29 30 32 34 35 34 34 34 36 37 37 36 36 36 36 36 37 37 37 36 34 32 32 31 30 29 27 26 26 24 22 21 19 18 17 17 16 16 16 15 15 15 16 15 16 16 16 16 16 16 16 15 15 15 14 11 9 11 12 12 12 10 9 8 7
55 53 51 49 47 45 43 41 38 37 37 38 39 39 37 33 30 29 29 28 28 28 30 32 34 33 34 34 35 37 37 37 37 36 36 36 37 38 38 37 35 34 34 33 31 30 29 28 27 25 24 22 20 20 19 18 18 17 17 16 15 15 15 15 15 15 16 17 17 17 17 17 17 16 15 13 11 11 12 13 12 11 10 8 8
57 55 54 53 51 48 45 42 40 38 38 39 39 39 37 33 30 30 29 28 28 28 28 30 32 33 34 35 35 36 37 37 37 36 36 36 37 37 38 37 37 35 35 34 33 32 30 29 28 26 24 23 22 21 21 20 19 18 17 16 16 16 15 15 16 16 16 17 17 18 18 18 18 18 16 15 13 12 13 13 13 12 10 9 9
57 57 56 54 53 51 48 44 41 41 41 40 39 39 37 34 32 30 30 29 29 29 29 30 31 33 34 35 35 35 36 36 36 36 36 36 37 37 37 37 37 36 35 34 33 32 31 30 29 26 25 24 23 23 22 20 20 19 18 17 16 16 15 15 16 16 17 18 18 19 19 19 19 19 17 17 15 13 13 14 13 11 10 9 10
58 58 56 54 53 52 49 46 44 44 43 40 39 38 36 35 34 33 32 32 31 30 31 31 31 32 34 34 35 34 34 35 35 36 36 36 36 36 36 36 36 36 35 34 33 32 32 31 29 27 25 25 24 24 22 21 20 20 19 18 17 17 16 16 17 17 17 18 19 19 20 20 20 20 19 19 17 15 14 14 12 11 10 10 10
59 58 56 55 54 53 51 48 46 45 43 41 39 39 38 38 38 36 34 33 33 32 32 32 31 32 33 34 34 34 34 34 35 35 36 36 35 35 35 35 35 35 35 33 33 32 32 31 29 27 27 26 25 24 23 22 21 20 19 19 18 17 17 17 17 18 18 19 20 20 21 21 21 20 20 20 19 16 15 14 12 11 10 11 12
58 57 56 55 54 53 52 49 47 45 44 42 41 42 42 41 39 37 35 35 34 34 33 33 32 31 32 33 33 33 33 33 34 34 34 34 34 34 34 34 34 35 34 34 33 33 32 31 29 28 27 27 26 26 25 23 22 21 21 20 19 18 17 18 18 18 19 19 20 21 21 22 21 21 21 21 20 17 16 15 13 11 12 13 13
57 58 57 56 54 53 52 50 49 48 47 45 43 44 44 42 40 37 36 36 36 34 34 35 33 30 32 33 33 33 33 33 33 33 33 32 32 33 33 33 33 33 34 33 33 32 31 30 29 28 27 26 26 27 25 24 23 22 22 21 19 18 18 19 19 19 19 20 20 20 21 21 21 21 22 22 20 18 17 16 13 13 13 14 15
56 57 57 56 53 51 51 52 51 50 48 46 45 46 44 41 40 38 36 36 35 34 34 35 32 30 31 33 33 33 33 33 32 32 31 31 31 32 32 33 32 32 32 32 32 31 31 30 29 28 27 27 28 28 26 25 24 23 22 21 21 20 20 19 20 20 20 20 20 20 21 21 22 22 22 22 21 19 17 16 14 13 14 14 16
52 53 52 52 52 50 51 51 50 49 48 46 46 46 44 41 39 38 36 35 33 33 35 35 32 30 31 32 34 34 33 32 31 30 30 31 31 31 32 32 31 31 31 32 32 31 31 30 29 29 28 28 29 28 27 25 24 23 22 22 22 21 21 20 21 21 20 20 20 21 21 21 22 22 22 21 21 19 18 16 15 14 14 16 18
45 45 46 47 48 49 50 50 50 50 50 48 47 47 45 42 39 37 36 34 32 32 35 33 31 29 30 32 34 34 33 32 30 29 30 30 30 30 31 30 30 30 31 31 31 30 30 29 29 28 28 28 28 28 26 26 25 23 23 23 23 22 21 21 21 22 21 21 21 21 21 21 22 23 23 22 20 20 19 17 16 15 15 16 18
37 39 41 42 43 45 48 49 50 51 50 48 48 48 46 43 40 37 36 33 31 32 34 32 31 30 30 31 34 34 33 31 30 29 29 29 29 29 29 29 29 29 29 29 29 29 28 28 28 28 27 27 28 27 26 26 26 25 24 25 25 23 22 21 22 23 23 22 22 22 21 22 23 24 23 22 21 21 20 18 17 17 17 17 19
34 35 37 38 40 42 45 47 47 48 48 48 49 50 49 45 42 39 36 32 31 33 34 32 31 30 29 31 33 34 33 32 30 29 29 28 28 28 28 27 28 28 28 28 28 28 28 28 28 27 27 27 27 27 26 26 26 26 25 26 26 25 23 22 23 23 24 24 23 23 22 23 24 24 23 22 22 22 22 21 20 20 20 20 20
32 34 34 35 36 38 40 42 43 43 44 46 49 51 50 46 41 37 35 33 33 35 35 32 31 30 29 30 32 33 32 32 31 30 29 28 28 27 27 27 27 27 27 28 28 28 27 27 27 26 26 25 25 26 26 26 26 26 26 26 27 25 24 23 23 24 25 25 25 24 24 24 24 24 23 23 23 24 24 23 23 23 23 22 22
34 34 33 32 32 33 36 38 39 40 42 45 48 50 49 44 38 36 36 36 36 36 35 32 30 29 29 30 31 31 31 31 30 29 28 27 27 27 27 27 27 27 27 27 27 27 26 25 25 24 24 24 24 25 25 25 25 25 25 26 26 25 23 23 24 24 25 26 26 27 26 25 25 25 25 25 25 25 26 26 26 26 25 24 24
36 34 31 29 29 30 32 35 37 39 40 42 44 46 44 40 37 38 39 38 37 36 34 32 30 29 29 29 30 30 30 29 28 27 27 27 27 26 26 26 26 26 26 26 25 25 24 23 23 23 22 22 23 24 24 23 22 23 23 23 24 24 23 23 23 24 25 27 28 28 27 26 26 27 27 27 27 28 28 29 29 28 28 27 26
38 34 30 27 27 28 31 33 35 37 37 38 40 42 41 40 40 40 40 38 38 36 34 32 31 30 28 28 29 29 28 28 27 27 27 27 26 26 25 25 26 26 25 25 24 23 23 22 22 22 22 22 22 22 22 21 20 20 20 20 21 22 22 22 23 24 25 26 28 29 29 29 29 29 29 29 29 30 31 31 31 31 31 30 29
40 36 32 28 27 27 29 31 34 37 38 39 40 41 42 42 42 41 40 39 38 36 34 33 32 30 29 29 29 28 27 27 27 28 28 28 28 27 27 27 27 27 26 26 25 25 24 23 23 23 22 22 23 23 22 21 21 20 20 20 20 20 21 21 21 22 24 25 27 28 29 31 32 32 31 31 31 32 33 33 33 33 33 33 32
42 40 36 31 28 28 29 31 34 37 39 40 41 42 43 43 42 41 40 39 37 36 35 34 33 32 32 31 30 29 28 28 29 30 30 30 30 30 30 29 29 29 28 28 27 26 26 25 25 24 24 25 25 25 24 23 23 22 22 22 23 23 23 23 23 22 23 24 26 27 29 31 32 33 33 33 33 34 34 34 35 35 35 35 35
44 42 40 36 32 30 31 32 34 35 37 39 40 41 41 42 42 41 41 40 38 37 36 36 36 36 35 34 33 32 31 32 33 33 33 32 32 31 31 31 31 31 31 30 30 29 29 28 28 27 28 28 27 27 26 26 25 25 25 25 26 26 26 26 26 25 25 24 24 25 27 28 30 32 33 34 35 35 36 36 36 36 36 36 36
44 43 42 39 35 33 33 35 36 36 36 37 38 40 40 40 40 41 41 41 39 38 38 39 40 39 37 36 36 35 35 35 35 36 35 35 34 34 34 33 34 34 33 33 32 32 31 31 30 30 30 30 30 29 29 28 28 28 28 28 28 28 29 30 29 29 29 28 27 28 28 28 28 30 31 33 34 35 35 36 36 36 37 37 37
45 43 43 42 38 35 34 35 37 38 37 37 37 38 37 36 36 39 42 42 41 40 41 42 41 39 39 39 39 39 39 38 38 39 39 38 38 37 37 36 36 36 35 35 35 34 34 34 33 32 32 32 32 31 31 31 31 30 30 30 30 31 32 33 33 33 33 32 32 32 32 31 31 31 31 32 33 33 34 35 36 36 37 37 38
47 45 44 43 41 37 35 35 37 38 38 38 37 37 36 34 35 38 41 42 42 42 42 43 42 41 41 42 43 43 43 42 42 42 41 41 41 41 40 40 39 39 39 38 38 37 38 37 36 35 35 34 34 33 33 33 33 33 33 33 33 34 35 36 36 37 37 37 37 37 37 36 35 35 35 35 34 34 34 36 36 37 38 39 40
Wind_Direction
204 199 194 190 188 186 185 187 186 182 180 179 180 181 179 177 178 175 172 171 167 167 169 169 171 173 175 177 175 172 168 164 161 156 152 149 146 144 143 143 142 142 140 137 137 137 136 133 128 124 120 116 113 113 117 120 122 121 117 111 104 101 100 99 99 102 108 114 116 119 121 121 120 119 119 116 113 110 106 104 102 101 99 97 96
202 197 193 189 187 185 185 187 187 184 182 181 179 180 180 178 179 177 175 173 173 174 175 176 178 179 180 180 178 174 170 166 162 158 155 152 150 149 149 149 147 146 144 140 140 141 139 135 130 125 122 118 116 118 122 125 128 131 131 127 120 112 107 105 104 105 110 116 119 122 124 123 122 121 119 116 113 111 108 106 103 101 100 98 96
195 193 189 186 184 184 184 185 185 186 186 184 181 179 179 180 179 177 178 178 178 180 181 182 183 182 180 179 178 176 170 167 164 161 159 157 156 156 156 155 152 149 147 144 143 145 143 139 133 128 125 122 120 122 124 127 130 134 137 136 132 125 118 113 111 111 113 118 122 125 126 125 123 121 118 115 112 109 107 106 103 100 98 96 93
195 192 188 184 181 182 183 183 184 185 187 187 184 180 179 181 179 177 181 182 182 185 186 186 184 179 176 175 175 174 171 169 168 167 166 164 163 162 160 157 153 150 149 148 147 149 148 143 137 132 129 127 124 123 123 124 126 129 133 136 134 130 125 121 118 116 117 120 124 126 125 124 122 120 118 114 110 107 105 104 103 100 96 93 90
203 195 190 184 181 181 182 182 182 182 185 187 186 183 182 181 180 180 183 184 186 187 188 186 182 177 174 172 170 171 173 174 176 175 173 171 167 164 161 157 154 151 151 149 147 151 152 148 143 138 135 132 127 124 123 123 123 125 128 131 132 131 129 128 126 122 123 125 125 125 123 122 120 119 118 113 109 107 105 103 100 97 94 90 86
212 205 197 190 185 182 180 181 181 181 184 185 187 187 185 183 182 183 183 185 188 188 186 183 179 177 176 174 173 173 177 181 182 181 176 172 167 164 161 159 157 154 153 150 149 153 156 153 149 144 142 137 132 128 126 126 125 125 129 131 133 134 135 136 133 130 129 130 130 129 127 124 121 120 120 115 111 108 105 101 96 91 87 82 77
218 214 205 195 188 184 181 181 182 182 183 185 188 190 188 186 185 185 184 185 187 186 183 180 176 177 179 179 178 179 182 184 184 180 175 170 168 167 165 164 162 158 156 153 152 156 158 158 154 151 149 146 142 138 134 134 133 131 132 135 138 140 142 143 141 139 138 136 135 136 134 131 128 127 125 122 119 115 110 104 96 86 77 68 61
219 214 206 196 190 188 184 184 186 186 185 185 189 192 191 190 189 188 186 185 185 182 179 178 176 178 181 182 183 186 187 186 183 178 173 171 171 170 170 169 166 161 159 156 156 159 160 160 158 156 156 154 152 150 147 147 144 141 141 142 143 145 148 151 151 150 149 144 140 140 138 136 135 134 130 127 126 122 117 111 101 89 71 51 40
217 213 210 204 194 190 187 187 190 189 187 186 188 191 193 193 193 190 188 186 182 178 178 179 180 181 183 184 187 190 190 187 183 177 174 176 175 173 173 171 166 161 159 157 157 160 161 161 159 158 159 159 159 158 157 158 156 154 155 154 151 150 153 156 159 159 158 155 150 147 144 141 139 137 134 132 131 129 126 122 115 106 78 31 14
215 214 214 211 202 196 193 190 189 191 192 191 190 191 193 195 195 193 190 187 181 178 180 182 184 186 186 187 190 191 188 185 182 179 178 180 179 178 177 172 166 161 159 157 156 159 161 160 159 159 159 160 162 162 162 164 164 164 166 167 165 161 159 161 164 166 166 165 161 155 150 147 144 141 140 140 139 137 136 138 141 152 193 229 304
214 213 213 215 212 206 199 193 190 191 194 195 194 193 193 195 197 196 193 188 182 180 183 186 189 189 189 190 192 189 185 182 181 181 181 182 182 181 178 173 166 163 160 157 155 155 156 156 155 155 155 157 159 160 162 165 167 169 172 176 176 173 171 170 171 172 173 172 169 162 154 150 148 147 148 149 146 144 146 152 160 170 180 187 163
214 212 213 217 218 212 204 199 195 194 195 196 197 196 195 195 197 199 196 190 185 184 186 190 192 192 192 192 191 187 183 182 183 183 184 184 184 181 178 173 168 165 161 157 153 150 148 146 143 142 143 148 152 153 155 158 161 166 174 181 186 184 183 182 183 183 181 179 175 168 158 152 152 153 154 153 151 151 154 158 164 162 160 159 134
214 212 214 218 219 213 209 205 199 196 195 196 197 198 197 197 197 199 199 195 190 187 189 192 193 193 193 193 189 185 184 185 185 185 185 186 184 182 180 177 172 168 162 155 149 144 138 133 128 125 125 127 131 134 136 140 144 151 162 178 192 193 191 191 194 195 193 189 183 174 163 156 157 159 157 155 154 157 161 166 169 163 161 162 147
214 214 216 219 218 215 215 212 205 200 198 197 197 197 197 197 198 198 199 198 195 193 192 193 194 194 194 192 187 184 186 188 187 186 187 186 185 184 183 180 176 168 160 153 147 142 138 131 125 120 117 114 113 112 113 115 119 122 127 141 164 183 190 194 197 199 199 195 188 177 167 162 161 162 159 158 161 167 175 182 184 184 182 176 158
215 215 216 218 218 218 221 220 215 210 205 201 199 198 197 197 198 199 199 198 198 198 197 196 195 195 193 190 187 186 188 190 189 188 188 188 187 187 186 182 176 167 159 155 152 148 145 140 134 127 122 118 113 109 106 105 106 107 107 108 111 124 150 179 196 202 200 195 188 179 172 168 166 167 166 167 176 185 192 196 197 197 188 172 162
216 215 215 216 216 219 225 228 226 223 216 209 203 200 199 198 198 200 200 199 199 199 200 200 199 195 193 190 189 190 191 191 191 191 191 192 191 190 188 182 174 167 162 160 159 158 155 152 148 143 138 133 127 121 116 111 107 104 103 99 96 97 105 125 161 194 204 200 192 187 183 181 179 179 179 183 192 198 203 204 199 193 182 170 166
216 215 215 215 214 217 225 229 232 233 228 219 210 204 201 200 199 200 201 201 201 200 201 203 203 198 193 191 191 193 194 193 193 194 195 195 195 194 191 181 173 169 168 167 167 167 166 165 164 163 160 156 152 148 143 139 134 127 115 101 92 87 87 91 92 106 175 202 202 199 196 194 193 193 195 199 202 205 209 208 203 196 183 174 177
217 215 215 216 214 214 220 226 229 231 230 225 218 209 205 203 202 201 200 201 202 202 203 205 205 202 195 192 193 196 196 196 195 196 196 197 197 197 192 183 177 175 175 176 176 177 177 177 179 181 180 179 178 177 176 177 183 192 207 234 273 338 37 49 56 62 69 119 201 208 207 205 203 203 205 207 208 210 213 212 209 205 194 189 194
217 216 216 217 218 218 221 227 229 230 231 231 226 218 210 207 205 203 201 201 203 204 205 206 207 205 200 194 194 197 199 198 198 197 197 198 199 198 195 189 184 183 184 185 185 186 187 189 191 195 197 199 202 205 205 207 211 220 232 248 263 273 284 306 336 6 28 39 54 203 211 212 210 209 209 209 209 211 212 211 210 204 196 191 191
218 219 220 220 222 223 223 226 230 231 231 231 231 225 217 211 209 206 205 204 205 206 207 208 209 208 204 199 197 199 201 200 199 198 198 200 200 200 199 195 191 190 192 193 193 193 196 199 202 208 213 217 220 223 223 223 225 231 239 248 255 263 271 279 292 308 330 354 7 9 222 213 213 212 210 207 206 206 206 205 202 195 187 182 180
219 220 222 222 224 225 225 225 228 229 228 228 230 228 222 216 212 210 209 208 207 208 209 211 212 212 209 205 202 201 202 203 201 199 199 200 201 201 201 198 195 195 197 199 200 202 204 207 211 218 224 229 231 229 228 229 231 233 238 246 251 256 262 268 274 281 291 308 323 332 329 244 217 213 208 204 201 200 199 197 193 186 177 175 175
218 219 222 223 224 224 224 225 227 229 228 228 230 230 226 221 216 213 212 210 210 210 210 212 214 215 214 212 207 205 205 205 203 201 201 201 202 203 204 201 198 199 201 203 206 208 211 214 218 223 229 233 233 231 228 227 230 232 235 242 248 252 256 259 263 267 271 275 280 291 302 298 239 212 205 201 198 195 191 188 186 181 176 176 176
217 218 220 220 220 221 222 224 226 227 227 227 229 231 229 225 220 216 213 212 212 212 212 213 214 215 217 216 214 210 209 208 206 204 203 202 203 205 205 203 202 202 203 206 209 212 215 218 222 227 230 232 232 229 226 226 229 231 234 239 246 252 255 255 257 261 260 256 260 265 271 279 267 222 206 202 199 195 190 187 185 182 179 182 185
214 215 215 215 216 218 220 222 224 226 226 225 227 230 230 228 225 220 216 214 214 213 213 214 215 215 217 218 217 215 213 212 210 208 205 204 205 206 207 206 205 204 205 208 211 215 219 222 225 228 229 229 230 228 226 229 232 234 236 239 243 249 255 254 254 258 256 251 253 255 257 264 265 242 216 208 204 199 195 192 190 188 187 192 200
212 212 212 212 214 218 221 222 224 226 226 225 226 229 231 232 229 225 221 217 216 215 215 215 215 216 218 219 219 217 216 216 215 213 210 207 207 208 208 209 208 207 208 211 214 217 221 224 227 229 228 228 229 228 228 231 237 241 242 243 243 246 252 253 253 255 254 250 251 254 253 254 259 252 232 218 212 207 203 198 194 197 202 207 214
210 210 211 211 213 217 222 222 222 225 226 225 225 228 231 233 232 229 226 222 219 218 217 217 217 218 218 219 220 219 219 219 219 218 215 211 210 210 211 211 211 210 211 213 216 219 222 225 228 229 228 228 229 229 229 232 237 243 246 248 248 247 250 252 252 252 252 250 251 254 251 247 253 256 245 227 219 214 211 206 200 204 211 219 227
207 208 209 211 212 216 221 223 222 223 224 224 224 227 230 233 235 234 231 228 224 221 220 220 220 220 219 219 220 220 220 221 222 222 220 216 214 213 213 214 213 212 214 216 218 221 224 226 228 229 229 230 230 230 231 233 237 242 246 251 253 252 253 253 253 253 253 252 253 255 252 246 249 256 255 237 221 218 217 213 207 208 214 223 232
207 208 209 211 212 215 219 223 224 223 223 224 224 226 229 232 234 235 234 233 229 225 223 223 223 222 221 220 220 220 221 221 222 223 223 220 218 216 216 216 215 215 216 218 220 223 225 227 229 231 230 231 231 230 231 233 237 241 245 250 254 256 257 256 256 256 256 255 255 256 255 250 248 254 256 247 224 216 218 219 215 213 218 229 241
208 209 211 213 214 215 218 222 225 224 223 224 225 226 228 230 232 235 237 239 237 232 228 226 226 225 223 223 222 221 220 221 222 224 224 223 222 220 219 219 218 217 219 220 223 225 227 229 231 232 231 231 231 230 232 235 239 242 246 250 254 258 260 260 260 259 258 258 257 256 255 252 249 251 254 250 233 217 217 222 222 220 226 238 253
209 211 212 214 215 215 218 221 222 221 222 223 225 226 228 230 232 237 241 243 244 241 236 231 229 227 226 225 225 223 222 221 222 223 225 225 224 223 222 221 221 220 221 223 225 228 230 231 232 232 231 231 230 229 233 239 242 244 246 249 253 256 259 261 261 260 259 258 257 255 254 252 251 251 252 250 240 221 217 221 224 226 233 246 260
210 212 213 215 216 217 218 219 218 217 218 221 225 228 229 229 230 235 241 244 245 246 244 238 232 228 227 228 227 226 224 223 222 223 224 225 226 226 225 224 223 223 224 225 227 229 232 234 234 232 231 231 230 230 235 241 245 246 247 249 251 254 257 259 260 260 258 257 256 255 254 253 253 252 251 249 244 227 217 222 227 230 236 250 266
212 213 213 214 216 217 217 215 214 214 215 218 224 228 228 228 229 233 239 243 244 245 245 243 236 230 228 229 229 229 228 225 224 224 224 225 226 226 226 226 226 226 227 228 229 231 235 237 237 235 233 232 231 232 237 243 246 248 248 249 251 253 255 257 257 258 257 257 256 255 255 254 253 253 252 251 249 234 219 224 233 236 243 259 275
215 215 214 214 216 217 216 213 212 214 215 217 223 227 228 228 230 232 235 239 241 243 243 243 240 234 231 230 231 231 230 228 226 225 225 225 225 226 227 227 227 228 229 230 231 233 236 238 239 238 236 234 233 235 240 244 247 249 250 250 252 254 255 256 257 257 256 256 256 255 255 254 254 255 253 251 251 240 223 226 239 246 255 268 279
216 217 216 215 216 217 216 212 211 213 215 216 221 226 227 227 229 230 233 236 238 240 241 242 241 237 233 232 231 231 231 229 228 227 226 226 226 226 227 227 227 228 229 230 232 234 236 238 239 239 237 237 236 238 241 245 247 248 250 252 253 255 256 257 257 257 256 256 255 254 254 254 254 254 253 251 251 241 225 227 241 253 260 269 279
217 218 218 217 217 217 217 214 211 212 214 215 217 222 225 226 228 230 232 234 236 238 241 242 241 238 235 233 232 231 231 230 229 228 228 227 227 228 228 228 228 228 229 230 232 234 236 238 238 238 238 238 238 240 242 245 246 247 248 251 253 255 256 256 256 256 255 255 254 253 253 254 254 253 253 253 251 240 227 226 239 254 263 270 281
219 219 220 221 220 218 217 215 212 211 214 214 214 219 223 225 227 229 231 233 234 236 240 242 241 238 237 234 232 231 231 230 229 228 228 228 229 230 231 231 230 230 230 231 233 234 236 238 238 238 238 238 238 240 242 244 245 247 248 250 253 255 256 256 256 255 254 255 255 254 253 253 253 253 253 254 251 241 230 229 236 252 264 274 283
220 221 222 224 224 220 218 218 216 215 215 214 213 217 221 223 225 227 229 232 233 235 240 242 241 239 238 235 232 231 231 230 229 228 228 228 229 230 231 232 232 231 231 232 233 234 235 236 237 238 239 238 238 240 242 244 246 248 250 252 253 255 256 257 257 256 255 256 257 256 254 253 252 253 253 254 252 243 234 234 239 251 264 276 283
221 222 223 224 224 222 220 221 220 220 221 219 216 216 218 221 224 226 228 231 232 235 240 242 240 240 239 236 233 231 231 231 230 229 228 228 228 229 231 232 232 232 232 232 233 234 235 236 238 239 240 239 240 242 244 246 248 250 253 254 255 256 258 258 257 256 255 256 256 256 255 253 253 253 253 254 253 245 238 238 243 252 264 276 283
220 221 222 222 222 221 221 221 221 222 224 224 220 218 217 219 223 224 226 229 231 235 239 241 241 241 241 237 233 231 230 230 230 229 229 229 229 230 231 231 232 232 232 233 234 235 236 238 240 241 241 241 243 245 246 249 251 252 253 255 256 258 260 260 259 256 255 256 257 257 256 254 254 253 254 256 255 249 244 243 247 255 265 274 282
216 216 217 218 218 218 218 219 220 222 225 225 222 219 218 218 220 222 224 226 230 236 239 240 240 241 241 238 233 230 229 229 228 229 229 230 230 231 231 232 232 233 234 235 236 237 238 240 242 243 243 243 245 247 249 250 252 253 254 255 257 260 261 260 258 256 256 256 257 258 257 255 254 254 256 258 257 254 251 249 252 259 266 272 279
211 213 214 214 214 215 215 216 218 220 223 224 221 220 219 218 219 221 223 224 229 237 239 238 239 241 241 239 234 230 229 227 226 227 228 229 231 232 232 232 233 234 235 237 238 239 240 242 243 244 245 246 248 251 252 253 254 254 254 256 259 261 260 258 256 256 255 255 257 259 258 256 256 258 260 260 258 256 257 256 257 262 267 272 280
211 213 214 213 212 214 215 216 216 217 219 220 219 219 220 220 219 221 224 225 230 237 238 238 239 241 241 239 234 230 229 227 226 227 228 229 231 231 232 233 233 235 236 238 239 240 241 243 244 246 247 249 250 252 253 253 254 255 255 257 260 263 262 258 255 254 254 254 255 257 257 257 259 262 264 262 259 258 259 260 261 264 269 275 282
212 212 212 211 213 214 214 215 216 216 216 216 217 219 220 219 219 221 224 226 230 236 237 237 239 241 240 237 233 230 229 228 228 228 228 229 230 230 230 231 232 233 235 236 237 239 240 242 243 245 245 246 247 249 251 253 255 256 257 258 261 264 264 260 256 253 253 253 253 256 258 260 262 264 265 264 262 261 261 262 264 267 271 276 281
210 210 209 210 213 213 212 213 214 215 214 215 216 217 217 216 218 221 224 227 230 234 236 236 237 239 237 235 233 231 229 229 228 227 226 226 227 227 228 228 229 230 231 233 235 236 236 237 238 239 241 242 245 248 251 255 258 259 260 261 262 263 263 260 256 253 252 252 253 256 260 262 262 263 264 265 265 264 264 266 268 271 274 276 278
209 208 206 209 213 213 209 209 210 212 213 213 213 213 212 215 219 223 225 227 229 232 233 233 234 235 234 232 231 230 228 226 224 221 219 219 219 220 221 222 224 225 226 227 229 229 230 231 233 237 240 243 247 251 254 257 260 263 264 265 265 265 265 263 260 256 254 253 254 256 259 260 261 262 264 265 267 268 269 271 273 275 276 277 279
207 207 205 207 213 214 208 203 202 205 208 209 209 210 212 216 221 225 226 226 227 228 229 231 231 229 228 228 228 227 225 221 218 215 213 212 213 213 214 216 218 220 221 222 223 225 227 230 234 238 242 245 249 254 257 261 264 268 272 274 273 273 273 272 269 265 260 257 256 256 257 258 260 262 264 266 269 271 273 274 276 277 278 280 281
206 208 207 206 211 214 210 203 200 200 202 204 207 209 212 216 220 223 223 222 223 224 226 227 227 226 225 226 226 225 221 216 214 212 211 211 212 212 214 216 218 220 222 224 225 228 230 233 236 239 243 246 250 255 259 262 265 270 274 276 277 278 281 282 282 279 274 267 263 262 261 261 262 263 265 267 270 273 274 275 276 278 279 280 282
206 209 210 209 209 212 210 207 205 203 202 203 205 208 211 214 217 218 219 218 219 221 222 224 225 225 225 225 224 223 221 217 214 214 214 214 215 216 218 220 221 224 225 227 229 232 234 236 238 241 243 246 250 255 259 261 263 266 269 271 273 277 280 283 283 282 281 279 277 274 272 270 269 268 268 269 271 273 274 275 275 277 279 280 282
205 210 213 212 211 210 208 207 208 209 207 206 206 208 211 214 216 217 218 217 217 218 219 222 225 226 227 227 226 225 223 220 218 218 218 218 219 221 223 224 226 227 229 231 233 235 237 239 241 243 245 248 250 253 256 259 261 263 266 269 271 273 274 276 278 278 279 279 279 278 277 277 276 275 274 272 272 273 274 275 276 278 279 281 283
204 208 213 215 213 211 207 206 208 211 212 212 211 210 213 216 217 218 219 219 217 217 219 222 226 228 228 228 228 227 225 224 223 222 221 222 223 224 226 227 229 230 232 233 235 236 237 238 240 243 245 248 250 252 255 258 260 262 265 267 270 270 271 272 274 275 276 277 277 276 276 276 278 278 277 276 276 276 276 277 278 279 280 282 283
205 207 212 215 216 213 209 207 208 211 213 214 215 215 217 219 220 219 219 220 219 218 220 222 225 228 230 231 230 229 228 227 226 225 225 225 227 227 228 229 231 232 234 235 236 239 240 241 241 242 244 247 250 253 255 258 260 262 264 266 267 269 271 271 271 271 273 274 274 274 274 274 275 275 276 277 278 278 278 278 279 280 282 283 283
Height
5914 5914 5915 5915 5915 5916 5918 5920 5921 5923 5924 5926 5928 5929 5931 5932 5934 5935 5937 5938 5940 5941 5942 5943 5944 5944 5945 5946 5946 5947 5947 5948 5949 5950 5951 5951 5952 5952 5953 5953 5954 5954 5954 5954 5954 5954 5954 5955 5955 5955 5955 5955 5955 5955 5955 5956 5956 5957 5957 5957 5957 5957 5958 5957 5957 5957 5958 5958 5958 5958 5958 5959 5959 5959 5959 5960 5960 5960 5960 5960 5960 5960 5960 5960 5960
5914 5914 5914 5915 5915 5916 5917 5919 5921 5922 5924 5925 5927 5929 5930 5932 5933 5935 5937 5938 5939 5940 5941 5942 5943 5944 5945 5946 5947 5947 5948 5949 5950 5950 5951 5952 5952 5953 5954 5954 5955 5955 5955 5955 5955 5955 5955 5955 5956 5956 5956 5956 5956 5956 5957 5957 5957 5958 5959 5959 5959 5959 5959 5959 5959 5959 5959 5959 5959 5959 5960 5960 5960 5961 5961 5961 5961 5961 5961 5961 5961 5961 5961 5961 5961
5914 5914 5914 5914 5915 5915 5917 5918 5920 5922 5923 5924 5926 5927 5930 5931 5933 5935 5936 5938 5939 5940 5941 5941 5943 5944 5945 5946 5947 5948 5949 5950 5951 5951 5952 5953 5953 5954 5954 5955 5955 5955 5956 5956 5956 5956 5956 5956 5956 5956 5956 5957 5957 5958 5958 5959 5959 5959 5960 5960 5960 5960 5960 5960 5960 5960 5960 5960 5960 5960 5961 5961 5961 5962 5962 5962 5962 5962 5962 5962 5962 5962 5962 5962 5962
5913 5913 5913 5914 5914 5915 5916 5917 5919 5921 5923 5924 5926 5927 5929 5931 5933 5934 5936 5937 5938 5939 5940 5941 5943 5944 5945 5947 5948 5949 5950 5951 5952 5952 5953 5953 5953 5954 5955 5955 5956 5956 5956 5956 5956 5957 5957 5957 5957 5957 5957 5957 5958 5959 5959 5959 5960 5960 5960 5960 5960 5960 5960 5961 5961 5961 5961 5962 5962 5962 5962 5962 5963 5963 5963 5963 5964 5964 5964 5964 5964 5964 5964 5963 5963
5912 5912 5912 5913 5913 5914 5915 5916 5918 5920 5922 5924 5926 5927 5928 5930 5932 5933 5935 5936 5937 5939 5940 5942 5943 5944 5946 5947 5948 5949 5950 5951 5952 5952 5953 5953 5954 5954 5955 5956 5956 5957 5957 5957 5957 5958 5958 5958 5958 5957 5958 5958 5958 5959 5959 5960 5960 5960 5960 5960 5960 5961 5961 5961 5962 5962 5962 5962 5963 5963 5964 5964 5964 5964 5965 5965 5965 5965 5965 5965 5965 5965 5965 5964 5964
5911 5912 5912 5912 5912 5913 5914 5915 5917 5919 5920 5922 5924 5926 5927 5928 5930 5932 5933 5935 5937 5938 5940 5942 5943 5945 5946 5947 5948 5949 5950 5950 5951 5952 5953 5954 5954 5955 5956 5956 5957 5957 5957 5957 5958 5958 5959 5958 5958 5958 5958 5959 5959 5959 5960 5960 5961 5961 5961 5961 5961 5961 5961 5962 5962 5962 5962 5963 5964 5964 5965 5965 5965 5966 5966 5966 5966 5966 5966 5966 5966 5966 5966 5965 5965
5911 5912 5912 5912 5913 5913 5914 5914 5916 5917 5918 5920 5923 5925 5926 5928 5929 5931 5932 5934 5936 5938 5940 5942 5943 5944 5945 5946 5947 5948 5948 5949 5950 5952 5953 5954 5955 5956 5956 5957 5957 5958 5958 5958 5958 5959 5959 5959 5959 5959 5959 5959 5959 5960 5960 5961 5961 5962 5962 5962 5962 5962 5962 5962 5963 5962 5963 5963 5964 5965 5965 5966 5966 5967 5967 5967 5967 5967 5967 5967 5967 5967 5966 5966 5966
5910 5911 5912 5912 5912 5913 5913 5914 5914 5916 5917 5919 5921 5924 5926 5927 5929 5930 5932 5933 5935 5938 5940 5941 5942 5943 5944 5945 5946 5947 5948 5949 5951 5952 5954 5955 5955 5956 5956 5957 5958 5958 5958 5958 5959 5959 5960 5960 5959 5959 5959 5960 5960 5960 5961 5961 5962 5963 5963 5963 5963 5963 5963 5963 5963 5963 5963 5963 5964 5965 5965 5966 5966 5967 5967 5967 5967 5967 5967 5967 5967 5967 5967 5966 5966
5909 5910 5911 5911 5911 5911 5912 5913 5914 5915 5916 5918 5920 5922 5924 5926 5928 5929 5931 5933 5935 5937 5939 5940 5941 5942 5943 5945 5946 5947 5948 5950 5951 5953 5954 5955 5956 5956 5957 5957 5958 5958 5958 5958 5959 5959 5960 5960 5960 5960 5960 5960 5961 5961 5962 5962 5963 5963 5964 5964 5964 5963 5964 5964 5964 5963 5963 5963 5964 5964 5965 5966 5967 5967 5967 5967 5967 5967 5967 5967 5967 5967 5967 5967 5967
5908 5909 5910 5910 5910 5910 5911 5911 5913 5914 5916 5917 5918 5920 5923 5925 5927 5929 5930 5932 5934 5936 5938 5939 5941 5942 5943 5944 5945 5947 5948 5950 5951 5953 5954 5955 5956 5956 5957 5957 5958 5958 5958 5959 5959 5960 5960 5960 5960 5960 5960 5961 5961 5962 5962 5963 5963 5964 5964 5964 5964 5964 5964 5964 5964 5964 5964 5964 5964 5964 5965 5966 5967 5967 5967 5967 5967 5967 5968 5968 5967 5967 5967 5967 5967
5907 5907 5908 5909 5910 5910 5911 5911 5912 5913 5915 5916 5918 5919 5922 5924 5926 5928 5930 5931 5934 5936 5937 5938 5940 5941 5943 5944 5945 5946 5948 5949 5951 5952 5953 5954 5955 5956 5957 5957 5958 5958 5959 5959 5959 5960 5961 5961 5960 5960 5961 5961 5962 5962 5963 5963 5964 5964 5965 5965 5965 5965 5965 5964 5964 5964 5964 5964 5964 5965 5965 5966 5967 5967 5967 5967 5967 5967 5967 5968 5967 5967 5967 5967 5967
5905 5906 5907 5908 5909 5910 5911 5912 5912 5913 5914 5916 5918 5919 5921 5923 5925 5927 5929 5931 5933 5934 5936 5937 5939 5941 5942 5943 5945 5946 5947 5949 5950 5951 5953 5954 5955 5956 5956 5957 5958 5958 5959 5959 5960 5960 5961 5961 5961 5961 5961 5961 5962 5962 5963 5964 5964 5965 5965 5965 5965 5965 5965 5965 5965 5965 5965 5965 5965 5965 5966 5966 5967 5967 5967 5967 5967 5967 5967 5967 5967 5968 5968 5967 5967
5903 5904 5905 5906 5909 5910 5911 5911 5912 5913 5914 5915 5917 5919 5921 5922 5924 5926 5928 5931 5932 5933 5935 5936 5938 5940 5941 5943 5944 5945 5947 5948 5949 5951 5952 5953 5955 5956 5956 5957 5957 5958 5959 5960 5960 5961 5961 5962 5961 5961 5962 5962 5962 5963 5963 5964 5964 5965 5965 5966 5966 5966 5966 5965 5965 5965 5965 5965 5965 5966 5966 5967 5967 5967 5968 5968 5968 5968 5968 5968 5968 5968 5968 5968 5968
5901 5902 5903 5906 5908 5909 5910 5911 5912 5912 5913 5914 5915 5917 5919 5921 5923 5925 5927 5929 5931 5932 5934 5935 5937 5939 5940 5942 5943 5945 5946 5947 5949 5950 5951 5953 5954 5955 5956 5957 5958 5958 5959 5960 5961 5961 5962 5962 5962 5962 5963 5963 5963 5964 5964 5965 5965 5965 5966 5966 5966 5966 5966 5966 5966 5966 5966 5966 5966 5966 5967 5967 5967 5968 5968 5968 5968 5968 5968 5968 5968 5968 5968 5968 5968
5899 5901 5903 5905 5907 5908 5909 5910 5911 5912 5912 5913 5914 5915 5917 5919 5921 5923 5925 5927 5929 5931 5933 5934 5936 5937 5939 5941 5943 5944 5945 5946 5948 5949 5951 5952 5954 5955 5956 5957 5958 5958 5959 5960 5961 5961 5962 5962 5963 5963 5963 5964 5964 5965 5965 5966 5966 5966 5966 5967 5967 5967 5966 5966 5966 5966 5966 5967 5967 5967 5967 5967 5967 5968 5968 5969 5969 5969 5969 5968 5968 5968 5968 5968 5969
5898 5900 5901 5903 5906 5907 5908 5909 5910 5911 5912 5913 5914 5915 5916 5917 5919 5921 5923 5925 5927 5929 5931 5933 5934 5936 5938 5940 5941 5943 5944 5945 5947 5948 5950 5951 5953 5954 5955 5957 5958 5959 5959 5960 5961 5961 5962 5962 5963 5963 5964 5964 5965 5965 5966 5966 5967 5967 5967 5967 5967 5967 5967 5967 5967 5967 5967 5967 5967 5968 5968 5968 5968 5968 5969 5969 5969 5969 5969 5968 5968 5968 5968 5969 5969
5896 5899 5900 5901 5904 5906 5907 5908 5910 5911 5912 5913 5913 5914 5915 5916 5917 5919 5921 5923 5925 5927 5929 5931 5932 5934 5936 5938 5940 5941 5943 5944 5946 5947 5948 5950 5952 5953 5955 5956 5958 5959 5959 5960 5961 5961 5962 5962 5963 5963 5964 5964 5965 5965 5966 5967 5967 5967 5968 5968 5968 5967 5967 5967 5967 5967 5967 5967 5968 5968 5968 5968 5968 5969 5969 5969 5969 5969 5969 5968 5968 5968 5969 5969 5969
5895 5897 5897 5899 5901 5904 5905 5907 5908 5909 5910 5911 5912 5913 5913 5914 5915 5917 5919 5922 5924 5925 5927 5929 5931 5932 5934 5936 5938 5940 5941 5943 5944 5945 5947 5949 5951 5952 5954 5956 5957 5958 5959 5959 5960 5961 5961 5962 5962 5963 5964 5964 5965 5965 5966 5966 5967 5967 5968 5968 5968 5967 5967 5967 5967 5967 5968 5968 5968 5968 5968 5968 5968 5969 5969 5969 5969 5969 5968 5968 5968 5969 5969 5969 5969
5892 5894 5895 5897 5899 5902 5904 5906 5907 5908 5909 5910 5911 5911 5912 5913 5914 5916 5917 5919 5920 5922 5924 5926 5928 5931 5933 5935 5936 5938 5939 5941 5943 5944 5946 5948 5949 5951 5953 5954 5956 5957 5958 5959 5959 5960 5961 5961 5962 5962 5963 5964 5964 5965 5966 5966 5966 5967 5967 5967 5968 5967 5967 5967 5967 5967 5968 5968 5967 5968 5968 5968 5968 5968 5968 5968 5968 5968 5968 5968 5968 5969 5969 5970 5970
5889 5891 5893 5896 5898 5900 5903 5904 5905 5907 5908 5908 5909 5910 5911 5912 5913 5914 5915 5916 5918 5920 5922 5924 5927 5929 5931 5933 5934 5936 5937 5939 5941 5943 5945 5946 5948 5949 5951 5953 5954 5956 5957 5958 5958 5959 5960 5960 5961 5962 5962 5963 5964 5965 5965 5966 5966 5966 5967 5967 5967 5967 5967 5967 5967 5967 5967 5967 5967 5967 5967 5968 5968 5968 5968 5968 5968 5968 5968 5968 5969 5969 5970 5970 5970
5887 5890 5891 5894 5896 5898 5900 5902 5902 5904 5905 5906 5907 5908 5909 5910 5911 5913 5914 5915 5917 5919 5921 5923 5925 5928 5930 5931 5933 5934 5935 5937 5939 5941 5943 5944 5946 5948 5949 5951 5953 5954 5955 5956 5957 5958 5959 5959 5960 5961 5962 5962 5963 5964 5964 5965 5965 5966 5966 5967 5967 5967 5967 5967 5967 5967 5967 5967 5967 5967 5967 5967 5967 5967 5968 5968 5968 5968 5968 5968 5969 5969 5970 5970 5970
5885 5888 5889 5891 5893 5895 5897 5898 5899 5901 5903 5904 5905 5906 5907 5909 5910 5911 5912 5914 5916 5918 5919 5921 5923 5926 5928 5930 5931 5932 5934 5935 5937 5939 5941 5942 5944 5946 5947 5949 5951 5952 5954 5955 5956 5957 5958 5958 5959 5960 5961 5961 5962 5963 5963 5964 5964 5965 5965 5966 5966 5966 5966 5967 5967 5967 5967 5967 5967 5967 5967 5967 5967 5967 5967 5968 5968 5968 5968 5969 5969 5969 5970 5969 5969
5883 5885 5887 5889 5890 5892 5893 5895 5896 5899 5901 5902 5903 5904 5906 5907 5908 5909 5911 5913 5914 5915 5917 5919 5921 5923 5925 5927 5929 5931 5932 5934 5936 5937 5939 5940 5942 5944 5945 5947 5949 5950 5952 5953 5954 5955 5956 5957 5958 5959 5960 5960 5961 5961 5962 5963 5963 5964 5964 5965 5965 5965 5966 5966 5966 5966 5966 5966 5966 5967 5967 5967 5967 5967 5967 5968 5968 5968 5969 5969 5969 5969 5970 5969 5969
5879 5881 5883 5885 5886 5888 5890 5892 5894 5896 5898 5900 5901 5902 5904 5905 5906 5907 5909 5910 5911 5913 5914 5916 5918 5921 5922 5924 5927 5929 5931 5932 5934 5935 5937 5938 5940 5942 5944 5945 5947 5948 5950 5951 5952 5954 5955 5956 5957 5958 5958 5959 5959 5960 5961 5961 5962 5963 5963 5964 5964 5964 5964 5965 5965 5965 5965 5965 5965 5966 5966 5966 5966 5967 5967 5968 5968 5968 5969 5969 5969 5969 5969 5969 5969
5875 5877 5878 5880 5882 5885 5887 5890 5892 5894 5896 5898 5899 5900 5902 5903 5905 5906 5907 5908 5909 5910 5912 5914 5916 5917 5919 5922 5924 5927 5929 5931 5933 5934 5935 5936 5938 5940 5942 5943 5945 5947 5948 5949 5951 5952 5953 5954 5955 5956 5957 5958 5958 5959 5960 5960 5961 5962 5962 5963 5963 5963 5963 5963 5964 5964 5964 5964 5964 5965 5965 5966 5966 5966 5967 5967 5968 5968 5969 5969 5969 5969 5969 5969 5969
5871 5873 5875 5877 5880 5882 5884 5887 5889 5891 5893 5895 5897 5898 5900 5902 5903 5904 5905 5906 5907 5908 5910 5911 5913 5914 5917 5919 5922 5925 5927 5929 5931 5932 5933 5935 5936 5938 5939 5941 5943 5945 5946 5948 5949 5951 5952 5953 5954 5955 5956 5956 5957 5958 5959 5959 5960 5960 5961 5961 5961 5962 5962 5962 5962 5963 5963 5963 5963 5964 5964 5965 5965 5965 5966 5967 5968 5968 5969 5969 5969 5969 5969 5969 5969
5866 5868 5871 5873 5876 5878 5880 5883 5886 5887 5889 5891 5894 5896 5898 5899 5901 5902 5903 5904 5905 5906 5908 5909 5910 5912 5915 5917 5919 5922 5924 5926 5928 5930 5931 5933 5935 5936 5937 5939 5941 5943 5944 5946 5947 5949 5950 5951 5952 5953 5954 5955 5956 5957 5958 5958 5959 5959 5959 5959 5960 5960 5960 5960 5961 5961 5961 5962 5962 5962 5963 5963 5964 5964 5965 5966 5967 5968 5968 5968 5968 5968 5968 5969 5969
5861 5864 5866 5869 5872 5875 5877 5880 5882 5884 5886 5888 5891 5893 5895 5897 5898 5899 5901 5902 5903 5905 5906 5907 5908 5910 5913 5915 5917 5919 5921 5923 5925 5927 5929 5931 5933 5934 5935 5937 5939 5941 5943 5944 5945 5947 5948 5949 5950 5952 5953 5954 5955 5956 5956 5957 5957 5957 5958 5958 5958 5958 5958 5959 5959 5960 5960 5960 5960 5961 5961 5962 5962 5962 5964 5965 5967 5967 5967 5967 5967 5968 5968 5968 5969
5857 5860 5863 5866 5868 5871 5874 5877 5879 5881 5883 5885 5888 5890 5892 5894 5896 5897 5899 5900 5902 5903 5904 5905 5907 5909 5911 5912 5914 5915 5917 5919 5921 5924 5926 5928 5930 5932 5933 5935 5937 5939 5940 5941 5943 5944 5946 5947 5948 5950 5951 5952 5953 5954 5955 5955 5955 5956 5956 5956 5956 5957 5957 5957 5957 5958 5958 5959 5959 5959 5960 5960 5960 5961 5962 5964 5965 5966 5967 5966 5966 5967 5967 5968 5968
5853 5856 5859 5862 5865 5868 5871 5873 5876 5878 5881 5883 5885 5888 5890 5892 5894 5895 5896 5898 5900 5901 5903 5904 5905 5907 5909 5910 5911 5913 5914 5916 5918 5921 5923 5925 5927 5929 5931 5933 5935 5936 5938 5939 5941 5942 5943 5945 5946 5948 5949 5951 5952 5952 5953 5953 5953 5954 5954 5955 5955 5955 5955 5955 5956 5956 5957 5957 5957 5957 5958 5958 5959 5959 5960 5962 5963 5965 5965 5966 5966 5966 5967 5967 5966
5848 5851 5854 5858 5860 5864 5867 5870 5873 5876 5878 5881 5883 5885 5888 5890 5891 5893 5894 5896 5897 5899 5901 5902 5903 5905 5906 5907 5908 5910 5912 5914 5916 5918 5920 5922 5924 5926 5928 5930 5932 5934 5935 5937 5938 5940 5941 5942 5944 5946 5947 5949 5950 5950 5951 5951 5952 5952 5953 5953 5953 5953 5953 5953 5954 5954 5954 5955 5955 5955 5956 5956 5957 5957 5958 5960 5961 5963 5964 5964 5965 5965 5966 5966 5965
5844 5847 5850 5853 5856 5859 5862 5866 5870 5873 5875 5878 5880 5882 5885 5887 5889 5891 5892 5893 5894 5896 5898 5899 5901 5902 5903 5904 5905 5907 5909 5911 5913 5915 5917 5919 5921 5923 5925 5928 5930 5931 5933 5935 5936 5938 5939 5940 5941 5943 5945 5946 5947 5948 5949 5949 5950 5950 5951 5951 5951 5951 5952 5952 5952 5952 5952 5953 5953 5953 5954 5954 5954 5955 5956 5957 5959 5961 5962 5963 5964 5964 5965 5964 5963
5841 5843 5847 5850 5853 5855 5858 5863 5867 5869 5872 5876 5878 5880 5882 5885 5886 5888 5889 5890 5892 5893 5894 5896 5898 5899 5901 5902 5903 5905 5907 5909 5911 5912 5914 5916 5918 5920 5923 5925 5927 5929 5930 5932 5934 5935 5936 5938 5939 5941 5943 5944 5945 5945 5946 5947 5948 5948 5949 5949 5950 5950 5950 5950 5950 5950 5950 5950 5951 5951 5951 5952 5952 5953 5954 5955 5957 5959 5960 5961 5962 5962 5962 5962 5961
5837 5840 5843 5847 5849 5851 5855 5859 5863 5866 5870 5873 5875 5877 5879 5880 5882 5884 5885 5887 5888 5890 5891 5893 5894 5896 5898 5900 5901 5903 5905 5906 5908 5909 5911 5913 5916 5918 5920 5922 5924 5926 5928 5930 5931 5933 5934 5935 5937 5938 5940 5941 5942 5943 5944 5945 5946 5946 5947 5947 5948 5948 5948 5948 5948 5948 5948 5948 5949 5949 5949 5949 5950 5951 5951 5953 5954 5956 5958 5959 5960 5961 5961 5960 5960
5834 5836 5839 5843 5845 5848 5852 5856 5860 5863 5866 5868 5871 5873 5874 5876 5879 5881 5882 5884 5885 5887 5888 5889 5891 5893 5896 5897 5899 5900 5902 5904 5905 5907 5909 5912 5914 5916 5917 5919 5921 5923 5925 5927 5928 5930 5931 5933 5934 5936 5937 5938 5940 5941 5942 5943 5944 5944 5945 5946 5946 5946 5947 5947 5947 5947 5947 5947 5947 5947 5947 5947 5948 5949 5949 5950 5952 5954 5955 5957 5958 5959 5959 5958 5958
5830 5832 5835 5838 5842 5846 5850 5854 5857 5859 5861 5864 5868 5870 5871 5873 5876 5877 5879 5881 5882 5884 5885 5886 5888 5891 5893 5895 5896 5898 5899 5901 5903 5905 5907 5910 5912 5913 5915 5916 5918 5920 5922 5924 5926 5928 5929 5930 5932 5933 5935 5936 5937 5938 5939 5940 5941 5942 5943 5944 5944 5944 5944 5945 5945 5945 5945 5945 5945 5945 5945 5945 5946 5947 5947 5948 5949 5952 5953 5955 5956 5957 5957 5956 5956
5826 5828 5832 5835 5839 5844 5848 5850 5852 5855 5857 5861 5864 5866 5868 5870 5872 5874 5876 5877 5879 5882 5883 5884 5886 5889 5890 5892 5894 5895 5897 5899 5901 5903 5905 5907 5909 5911 5912 5914 5916 5918 5920 5922 5923 5925 5927 5928 5929 5931 5932 5934 5934 5935 5936 5938 5939 5940 5941 5942 5942 5942 5942 5942 5942 5942 5943 5943 5943 5943 5943 5943 5943 5944 5945 5945 5947 5949 5951 5952 5953 5954 5954 5955 5954
5822 5826 5830 5833 5836 5840 5844 5847 5849 5852 5855 5857 5860 5862 5865 5867 5869 5871 5873 5875 5877 5880 5880 5881 5884 5886 5888 5890 5891 5893 5895 5897 5899 5901 5903 5904 5906 5908 5909 5911 5913 5915 5917 5919 5920 5922 5924 5925 5927 5929 5930 5931 5931 5932 5934 5935 5936 5938 5939 5939 5940 5940 5940 5940 5940 5940 5940 5940 5940 5940 5940 5941 5941 5941 5942 5943 5944 5947 5949 5950 5951 5951 5952 5952 5952
5819 5822 5826 5829 5832 5836 5839 5842 5846 5848 5850 5854 5857 5859 5861 5864 5866 5868 5870 5873 5875 5877 5878 5880 5882 5883 5885 5887 5889 5890 5892 5894 5896 5898 5900 5901 5903 5905 5907 5909 5911 5912 5914 5916 5918 5920 5922 5923 5925 5926 5927 5928 5929 5930 5931 5933 5934 5935 5936 5936 5937 5938 5938 5938 5937 5937 5938 5938 5938 5937 5938 5938 5938 5938 5939 5940 5942 5944 5946 5947 5948 5948 5949 5950 5949
5815 5818 5821 5824 5828 5831 5835 5838 5841 5844 5847 5851 5854 5856 5858 5861 5863 5865 5867 5871 5874 5875 5876 5877 5879 5881 5883 5885 5886 5888 5890 5892 5894 5896 5897 5899 5900 5902 5904 5906 5908 5910 5912 5914 5915 5917 5919 5920 5922 5923 5925 5926 5926 5927 5929 5930 5931 5932 5933 5934 5934 5935 5935 5935 5935 5934 5935 5935 5935 5935 5935 5935 5935 5935 5936 5937 5939 5940 5942 5944 5945 5945 5946 5946 5945
5812 5814 5817 5820 5823 5827 5830 5833 5837 5840 5843 5847 5850 5852 5854 5857 5860 5863 5866 5869 5871 5872 5872 5874 5876 5878 5881 5882 5884 5886 5888 5890 5891 5893 5895 5896 5898 5900 5902 5904 5906 5907 5909 5911 5913 5914 5916 5917 5919 5920 5922 5923 5924 5925 5926 5927 5928 5929 5930 5931 5932 5932 5932 5932 5931 5931 5931 5932 5932 5932 5932 5932 5932 5932 5933 5934 5936 5937 5938 5939 5941 5941 5941 5942 5942
5809 5811 5814 5817 5820 5823 5826 5829 5832 5836 5839 5842 5845 5848 5851 5854 5858 5862 5865 5867 5868 5868 5870 5872 5874 5876 5878 5880 5882 5883 5885 5887 5889 5891 5893 5894 5896 5898 5900 5901 5903 5905 5906 5908 5910 5911 5913 5914 5916 5917 5919 5920 5921 5922 5923 5924 5925 5926 5927 5928 5928 5929 5928 5928 5928 5928 5928 5928 5929 5928 5929 5929 5929 5929 5930 5931 5932 5933 5934 5935 5936 5937 5938 5938 5939
5806 5809 5811 5814 5816 5819 5822 5825 5828 5831 5834 5837 5841 5844 5848 5853 5857 5860 5862 5862 5864 5866 5868 5870 5873 5874 5876 5878 5879 5881 5882 5884 5887 5889 5890 5892 5893 5895 5897 5899 5900 5902 5904 5905 5907 5908 5910 5912 5913 5915 5916 5917 5918 5919 5920 5921 5922 5923 5924 5925 5925 5925 5925 5925 5925 5925 5925 5925 5925 5925 5925 5926 5926 5926 5927 5928 5929 5930 5930 5931 5932 5933 5934 5935 5935
5803 5806 5808 5811 5813 5815 5818 5820 5823 5827 5830 5834 5838 5842 5847 5852 5855 5856 5857 5859 5861 5864 5866 5869 5871 5872 5874 5875 5877 5878 5880 5882 5884 5886 5888 5889 5891 5893 5895 5896 5898 5899 5901 5902 5904 5906 5908 5909 5911 5912 5913 5915 5916 5916 5917 5918 5919 5920 5921 5921 5921 5921 5922 5921 5922 5922 5922 5922 5922 5922 5923 5924 5924 5923 5924 5924 5925 5926 5926 5927 5928 5929 5931 5932 5932
5801 5803 5805 5807 5810 5813 5815 5818 5821 5824 5828 5832 5836 5841 5845 5848 5850 5851 5853 5856 5859 5861 5864 5867 5868 5870 5871 5873 5874 5876 5878 5880 5881 5883 5885 5887 5889 5891 5892 5894 5895 5897 5899 5900 5902 5904 5905 5907 5908 5910 5911 5912 5913 5913 5914 5915 5916 5917 5917 5918 5918 5918 5918 5918 5918 5919 5919 5919 5920 5920 5921 5921 5921 5921 5921 5921 5922 5922 5922 5923 5924 5925 5926 5926 5927
5798 5800 5803 5805 5808 5810 5813 5815 5818 5822 5826 5830 5834 5837 5840 5843 5845 5848 5850 5853 5856 5859 5862 5864 5866 5868 5869 5870 5872 5873 5875 5877 5879 5881 5883 5885 5886 5888 5890 5891 5893 5894 5896 5898 5900 5901 5903 5904 5906 5907 5908 5909 5910 5910 5911 5912 5913 5914 5914 5914 5915 5915 5915 5915 5915 5916 5917 5917 5918 5918 5918 5918 5918 5918 5918 5918 5918 5918 5918 5919 5919 5920 5920 5921 5921
5795 5798 5800 5803 5805 5808 5811 5813 5816 5819 5823 5826 5830 5833 5836 5839 5841 5844 5846 5849 5853 5856 5859 5861 5863 5865 5866 5868 5869 5871 5873 5875 5877 5879 5880 5882 5884 5886 5887 5889 5891 5892 5894 5896 5897 5899 5900 5902 5903 5904 5905 5906 5906 5907 5908 5909 5910 5910 5911 5911 5911 5911 5912 5912 5912 5913 5914 5914 5915 5915 5915 5915 5915 5915 5915 5915 5915 5915 5914 5914 5915 5915 5915 5915 5915
5792 5795 5798 5801 5804 5806 5808 5811 5813 5816 5819 5823 5826 5829 5832 5835 5837 5839 5842 5846 5850 5853 5856 5858 5859 5860 5862 5865 5867 5868 5870 5872 5874 5876 5877 5879 5881 5883 5885 5887 5888 5889 5891 5893 5894 5896 5897 5899 5900 5901 5902 5903 5903 5904 5905 5906 5906 5907 5907 5908 5908 5908 5908 5909 5909 5910 5910 5911 5912 5912 5912 5912 5911 5911 5911 5911 5911 5911 5911 5910 5910 5910 5911 5910 5910
5789 5792 5795 5798 5801 5804 5806 5808 5811 5814 5817 5820 5823 5826 5828 5831 5833 5836 5839 5843 5847 5850 5852 5853 5855 5857 5859 5861 5863 5865 5867 5869 5871 5873 5874 5876 5878 5880 5882 5883 5885 5886 5888 5890 5891 5892 5894 5895 5897 5898 5899 5900 5900 5901 5902 5902 5903 5903 5904 5904 5905 5906 5906 5906 5906 5907 5907 5908 5908 5908 5907 5907 5907 5907 5907 5907 5907 5907 5906 5906 5906 5906 5906 5906 5905
5785 5788 5792 5795 5799 5801 5804 5806 5809 5812 5815 5818 5820 5823 5825 5828 5831 5833 5836 5839 5843 5846 5848 5849 5851 5854 5856 5858 5860 5861 5863 5865 5867 5869 5871 5873 5875 5876 5878 5880 5881 5883 5885 5886 5888 5889 5890 5891 5893 5893 5895 5896 5896 5897 5898 5898 5899 5900 5900 5901 5902 5902 5902 5902 5903 5903 5903 5904 5904 5903 5903 5903 5903 5903 5903 5903 5903 5902 5902 5902 5901 5901 5901 5901 5900
5782 5785 5788 5792 5796 5798 5801 5803 5806 5809 5812 5815 5818 5821 5823 5826 5828 5830 5832 5835 5839 5841 5844 5846 5849 5851 5853 5854 5856 5858 5860 5861 5863 5865 5867 5869 5871 5872 5874 5876 5878 5879 5881 5882 5884 5885 5886 5887 5888 5889 5890 5892 5892 5893 5894 5895 5895 5896 5897 5897 5898 5898 5898 5898 5899 5899 5899 5899 5899 5898 5898 5899 5899 5898 5898 5898 5898 5898 5898 5897 5896 5896 5896 5895 5894